Regional Weather Roundup
Issued by NWS

Home | Current Version | Previous Version | Graphics & Text | Print | Product List | Glossary Off
Versions: 1 2 3 4 5 6 7 8 9 10 11 12 13 14 15 16 17 18 19 20 21 22 23 24 25 26 27 28 29 30 31 32 33 34 35 36 37 38 39 40 41 42 43 44 45 46 47 48 49 50

000
ASUS43 KTOP 301959
RWRKS

WEATHER ROUNDUP FOR KANSAS
NATIONAL WEATHER SERVICE GOODLAND KS
300 PM CDT THU OCT 30 2014

NOTE:  "FAIR" INDICATES FEW OR NO CLOUDS BELOW 12,000 FEET WITH NO
SIGNIFICANT WEATHER AND/OR OBSTRUCTIONS TO VISIBILITY.

KSZ001>006-013>018-027>032-041>047-302100-
NORTHWEST KANSAS

CITY           SKY/WX    TMP DP  RH WIND       PRES   REMARKS
GOODLAND       SUNNY     66  27  23 N12       30.29F
HAYS           SUNNY     68  34  28 NW17G26   30.20F
HILL CITY      SUNNY     69  30  23 NW20G28   30.21F
RUSSELL        SUNNY     69  34  27 NW22G30   30.16F
$$

KSZ061>065-074>080-084>089-302100-
SOUTHWEST KANSAS

CITY           SKY/WX    TMP DP  RH WIND       PRES   REMARKS
DODGE CITY     SUNNY     69  28  21 N15G28    30.23F
ELKHART          N/A     68  30  24 NW13        N/A
GARDEN CITY    SUNNY     68  27  21 N17G28    30.25F
GREAT BEND     SUNNY     70  34  26 N22G28    30.18F
LIBERAL        SUNNY     70  32  24 N21       30.26F
$$

KSZ066>073-081>083-090>101-302100-
SOUTHEAST KANSAS

CITY           SKY/WX    TMP DP  RH WIND       PRES   REMARKS
CHANUTE        SUNNY     72  37  28 NW16G29   30.04F
COFFEYVILLE    SUNNY     74  38  27 NW22G30   30.04F
HUTCHINSON     MOSUNNY   72  36  26 NW21G29   30.14F
MEDICINE LODGE   N/A     74  33  22 N18G28    30.15F
NEWTON         MOSUNNY   70  37  30 NW20G29   30.13F
PARSONS        SUNNY     75  38  26 N18G28    30.05F
WICHITA INTL   MOSUNNY   73  36  25 N24G33    30.11F
WICHITA JABRA  SUNNY     71  37  28 NW24G32   30.11F
WINFIELD       SUNNY     72  37  28 N17G31    30.11F
$$

KSZ007>012-019>026-033>040-048>060-102>105-302100-
NORTHEAST KANSAS

CITY           SKY/WX    TMP DP  RH WIND       PRES   REMARKS
CONCORDIA      SUNNY     68  36  30 NW16G29   30.12S
EMPORIA        SUNNY     69  35  28 NW21G28   30.07F
LAWRENCE       SUNNY     68  40  35 NW21G32   30.03S
MANHATTAN      SUNNY     70  38  31 N10G21    30.09S
OLATHE IND     SUNNY     67  40  37 NW22      30.03R
OLATHE EXE     SUNNY     67  38  34 NW14G29   30.01S
SALINA         SUNNY     72  34  24 NW25G33   30.12F
TOPEKA BILLARD SUNNY     69  39  33 NW17G31   30.05S
TOPEKA FORBES  SUNNY     69  39  33 NW20G32   30.04S
$$



USA.gov is the U.S. government's official web portal to all federal, state and local government web resources and services.